#timestamp,LO_Frequency,Hit,StdDev 
1700510415.6,286047007.5,N
1700510435.4,286047004.9,N
1700510455.2,286047003.5,N
1700510475.1,286047007.4,N
1700510476.0,286047007.4,N
1700510495.8,286047005.2,N
1700510515.7,286047004.8,N
1700510535.5,286047003.1,N
1700510555.3,286047004.1,N
1700510575.2,286047001.8,N
1700510595.0,286047001.3,N
1700510595.9,286047001.3,N
1700510615.7,286047002.6,N
1700510635.6,286047004.4,N
1700510655.4,286047005.4,N
1700510675.3,286047003.1,N
1700510695.1,286047005.2,N
1700510696.0,286047005.2,N
1700510715.8,286047006.0,N
1700510735.7,286047001.4,N
1700510755.5,286047003.9,N
1700510775.3,286047001.4,N
1700510795.2,286047001.5,N
1700510815.0,286046999.3,N
1700510815.9,286046999.3,N
1700510835.8,286046996.7,N
1700510855.6,286046995.2,N
1700510875.4,286046993.3,N
1700510895.3,286046998.9,N
1700510915.1,286047001.0,N
1700510935.9,286047002.5,N
1700510955.7,286046998.3,N
1700510975.5,286046999.1,N
1700510995.4,286046997.9,N
1700511015.2,286046998.6,N
1700511035.0,286047001.0,N
1700511035.9,286047001.0,N
1700511055.8,286047001.0,N
1700511075.6,286047001.0,N
1700511095.5,286046999.8,N
1700511115.3,286047002.2,N
1700511135.1,286047001.6,N
1700511155.9,286047004.2,N
1700511175.7,286047001.6,N
1700511195.5,286047001.7,N
1700511215.4,286047002.8,N
1700511235.2,286047003.0,N
1700511255.1,286047001.6,N
1700511256.0,286047001.6,N
1700511275.8,286047002.6,N
1700511295.6,286047001.8,N
1700511345.5,286047003.3,E
1700511355.4,286047003.7,N
1700511375.3,286047002.6,P
1700511395.1,286046998.3,P
1700511396.0,286046998.3,N
1700511415.8,286046999.5,N
1700511435.7,286046999.2,N
1700511455.5,286046997.4,N
1700511475.3,286046997.2,N
1700511495.2,286046995.3,N
1700511515.0,286046993.6,N
1700511515.9,286046993.6,N
1700511535.8,286046994.1,N
1700511555.6,286046990.5,Y
1700511575.4,286046993.6,P
1700511595.3,286046992.5,P
1700511615.1,286046988.5,P
1700511635.9,286046990.2,N
1700511655.7,286046992.0,N
1700511675.5,286046994.7,N
1700511695.4,286046993.3,N
1700511715.2,286046993.3,N
1700511735.0,286046997.7,N
1700511736.0,286046997.7,N
1700511755.8,286046997.7,N
1700511775.6,286046994.9,N
1700511795.5,286046997.5,N
1700511815.3,286046999.4,N
1700511835.1,286047002.5,N
1700511855.9,286046999.7,N
1700511875.7,286047002.1,N
1700511895.6,286047001.5,N
1700511915.4,286047004.1,N
1700511935.2,286047004.1,N
1700511955.1,286047007.2,N
1700511956.0,286047007.2,N
1700511975.8,286047009.0,N
1700511995.6,286047009.3,N
1700512015.5,286047010.0,N
1700512035.3,286047013.6,N
1700512055.2,286047012.2,N
1700512075.9,286047010.4,N
1700512095.7,286047011.2,N
1700512115.6,286047012.7,N
1700512135.4,286047011.4,N
1700512155.2,286047013.2,N
1700512175.1,286047011.0,N
1700512176.0,286047011.0,N
1700512195.8,286047011.2,N
1700512215.7,286047016.7,N
1700512235.5,286047014.7,N
1700512255.3,286047012.7,N
1700512275.2,286047013.8,N
1700512295.0,286047013.2,N
1700512295.9,286047013.2,N
1700512315.7,286047015.4,N
1700512335.6,286047013.9,N
1700512355.4,286047012.8,N
1700512375.3,286047011.5,N
1700512395.1,286047008.5,N
1700512396.0,286047008.5,N
1700512415.8,286047006.8,N
1700512435.7,286047008.5,N
1700512455.5,286047007.2,N
1700512475.3,286047005.4,N
1700512495.2,286047003.0,N
1700512515.0,286047003.0,N
1700512515.9,286047003.0,N
1700512535.8,286047005.4,N
1700512555.6,286047004.7,N
1700512575.4,286047005.1,N
1700512595.3,286047005.1,N
1700512615.1,286047007.3,N
1700512635.9,286047004.5,N
1700512655.7,286047005.8,N
1700512675.5,286047003.8,N
1700512695.4,286047001.8,N
1700512715.2,286047002.2,N
1700512735.0,286047000.0,N
1700512735.9,286047000.0,N
1700512755.8,286047000.6,N
1700512775.6,286046999.9,N
1700512795.5,286047000.5,N
1700512815.3,286046998.6,N
1700512835.1,286047001.2,N
1700512855.9,286046999.3,N
1700512875.7,286046996.8,N
1700512895.5,286047000.1,N
1700512915.4,286047001.3,N
1700512935.2,286046999.8,N
1700512955.1,286047000.6,N
1700512956.0,286047000.6,N
1700512975.8,286047004.3,N
1700512995.6,286046998.4,N
1700513015.5,286046998.6,N
1700513035.3,286047000.5,N
1700513055.1,286046999.2,N
1700513075.9,286046996.7,N
1700513095.7,286046999.3,N
1700513115.6,286046995.6,N
1700513135.4,286046995.1,N
1700513155.2,286046993.4,N
1700513175.1,286046994.5,N
1700513176.0,286046994.5,N
1700513195.8,286046990.1,Y
1700513215.7,286046988.5,P
1700513235.5,286046994.1,N
1700513255.3,286046992.9,N
1700513275.2,286046990.4,N
1700513295.0,286046994.6,N
1700513295.9,286046994.6,N
1700513315.7,286046992.6,N
1700513335.6,286046996.3,N
1700513355.4,286046993.7,N
1700513375.3,286046994.0,N
1700513395.1,286046995.0,N
1700513396.0,286046995.0,N
1700513415.8,286046996.8,N
1700513435.7,286046998.0,N
1700513455.5,286047000.7,N
1700513475.3,286046999.0,N
1700513495.2,286046998.7,N
1700513515.0,286046999.2,N
1700513515.9,286046999.2,N
1700513535.8,286046997.6,N
1700513555.6,286046996.5,N
1700513575.4,286046998.6,N
1700513595.3,286046996.7,N
1700513615.1,286046996.6,N
1700513635.8,286046999.4,N
1700513655.7,286046995.4,N
1700513675.5,286046996.2,N
1700513695.4,286046997.3,N
1700513715.2,286046995.1,N
1700513735.0,286046995.3,N
1700513735.9,286046995.3,N
1700513755.8,286046994.9,N
1700513805.6,286046998.5,E
1700513815.6,286046998.3,N
1700513835.4,286047002.7,P
1700513855.2,286046999.9,N
1700513875.1,286046998.1,N
1700513876.0,286046998.1,N
1700513895.8,286046996.6,N
1700513915.6,286046996.1,N
1700513935.5,286046995.3,N
1700513955.3,286046999.6,N
1700513975.2,286046999.4,N
1700513995.9,286046997.9,N
